N5CNB Weather Reports


Display with metric or nautical units.
time (UTC)temp
F
wind
direction
speed
MPH
gust
MPH
rain 1hr
in
rain 24hr
in
rain mn
in
humidity
%
barometer
mb
20260504021522 67 165 2.0 7.0 0.00 0.00 0.00 69 1018.2
20260504020006 67 172 3.0 6.0 0.00 0.00 0.00 69 1018.2
20260504014520 67 146 1.0 4.0 0.00 0.00 0.00 68 1018.1
20260504013011 66 142 2.0 5.0 0.00 0.00 0.00 69 1018.0
20260504011515 68 128 0.0 0.0 0.00 0.00 0.00 64 1017.9
20260504010022 71 128 0.0 0.0 0.00 0.00 0.00 59 1017.7
20260504004508 73 128 0.0 0.0 0.00 0.00 0.00 52 1017.9
20260504003019 75 184 0.0 2.0 0.00 0.00 0.00 49 1018.0
20260504001513 75 141 1.0 5.0 0.00 0.00 0.00 46 1018.1
20260504000018 75 199 2.0 6.0 0.00 0.00 0.00 44 1018.2
20260503234535 76 233 2.0 6.0 0.00 0.00 0.00 44 1018.1
20260503233005 76 184 3.0 7.0 0.00 0.00 0.00 41 1018.0
20260503231513 77 146 3.0 8.0 0.00 0.00 0.00 42 1018.2
20260503230016 77 212 3.0 8.0 0.00 0.00 0.00 39 1018.3
20260503224521 78 253 3.0 9.0 0.00 0.00 0.00 39 1018.5
20260503223025 78 175 3.0 9.0 0.00 0.00 0.00 39 1018.6
20260503221507 78 195 3.0 12.0 0.00 0.00 0.00 39 1018.9
20260503220012 78 23 4.0 9.0 0.00 0.00 0.00 38 1019.0
20260503214516 77 112 5.0 18.0 0.00 0.00 0.00 39 1019.3
20260503213022 78 288 6.0 10.0 0.00 0.00 0.00 38 1019.4
20260503211523 77 197 5.0 14.0 0.00 0.00 0.00 42 1019.6
20260503210007 77 48 3.0 12.0 0.00 0.00 0.00 37 1020.0
20260503204511 78 146 2.0 12.0 0.00 0.00 0.00 39 1020.1
20260503203021 77 121 4.0 15.0 0.00 0.00 0.00 42 1020.5
20260503201522 77 136 4.0 12.0 0.00 0.00 0.00 44 1020.6
20260503200024 77 89 7.0 13.0 0.00 0.00 0.00 44 1020.7
20260503194513 78 86 7.0 13.0 0.00 0.00 0.00 44 1021.0
20260503193022 78 158 5.0 13.0 0.00 0.00 0.00 43 1021.2
20260503191520 78 160 2.0 11.0 0.00 0.00 0.00 41 1021.5
20260503190027 77 198 6.0 14.0 0.00 0.00 0.00 40 1021.6
20260503184537 78 105 5.0 12.0 0.00 0.00 0.00 43 1021.7
20260503183012 77 245 3.0 8.0 0.00 0.00 0.00 42 1021.8
20260503181516 77 179 8.0 14.0 0.00 0.00 0.00 40 1022.1
20260503180024 77 333 3.0 11.0 0.00 0.00 0.00 42 1022.3
20260503174525 77 213 2.0 13.0 0.00 0.00 0.00 41 1022.7
20260503173044 77 141 5.0 8.0 0.00 0.00 0.00 48 1022.9
20260503171528 76 71 1.0 10.0 0.00 0.00 0.00 45 1023.2
20260503081523 51 356 0.0 0.0 0.00 0.00 0.00 92 1021.4
20260503071524 52 356 0.0 0.0 0.00 0.00 0.00 91 1021.6
20260503054532 53 356 0.0 0.0 0.00 0.00 0.00 90 1021.7
20260503053016 54 356 0.0 0.0 0.00 0.00 0.00 90 1021.9
20260503051521 54 356 0.0 0.0 0.00 0.00 0.00 90 1021.9
20260503050024 54 354 0.0 0.0 0.00 0.00 0.00 90 1021.6
20260503044525 54 353 0.0 0.0 0.00 0.00 0.00 90 1021.7
20260503043025 55 353 0.0 0.0 0.00 0.00 0.00 90 1021.6
20260503041518 55 354 0.0 0.0 0.00 0.00 0.00 89 1021.6
20260503040022 55 353 0.0 0.0 0.00 0.00 0.00 89 1021.3
20260503034537 56 354 0.0 0.0 0.00 0.00 0.00 89 1021.2
20260503033008 56 353 0.0 0.0 0.00 0.00 0.00 88 1021.3
20260503031510 57 353 0.0 0.0 0.00 0.00 0.00 88 1021.0
20260503030009 57 353 0.0 0.0 0.00 0.00 0.00 87 1020.7
20260503024506 58 354 0.0 0.0 0.00 0.00 0.00 87 1020.5
20260503023008 58 354 0.0 0.0 0.00 0.00 0.00 85 1020.6